This demonstration page uses our WeatherBlox Daily Observations layout. Learn more.

Left ArrowRight Arrow

Hourly Observations for November 29, 2021

Temp ( °F °C ) Dew Point ( °F °C ) Humidity (%) Winds ( mph kmh ) Pressure ( in mb ) Visibility ( mi km ) Precip ( " mm )
12:51 am 00:51 Clear 50 10 26 -3.3 39 39 ESE 10 17 30.17 1022 10 16 N/A
1:51 am 01:51 Clear 50 10 26 -3.3 39 39 E 8 13 30.16 1021 10 16 N/A
2:51 am 02:51 Clear 46 7.8 25 -3.9 44 44 SSE 13 20 30.16 1021 10 16 N/A
3:51 am 03:51 Clear 46 7.8 26 -3.3 46 46 SSE 7 11 30.15 1021 10 16 N/A
4:51 am 04:51 Clear 44 6.7 25 -3.9 47 47 SE 8 13 30.16 1021 10 16 N/A
5:51 am 05:51 Clear 46 7.8 26 -3.3 46 46 SSE 10 17 30.18 1022 10 16 N/A
6:51 am 06:51 Clear 44 6.7 26 -3.3 49 49 SSE 14 22 30.20 1023 10 16 N/A
7:51 am 07:51 Sunny 47 8.3 26 -3.3 44 44 ESE 12 19 30.22 1023 10 16 N/A
8:51 am 08:51 Sunny 53 11.7 26 -3.3 35 35 SE 16 26 30.21 1023 10 16 N/A
9:51 am 09:51 Sunny 58 14.4 27 -2.8 31 31 SE 14 22 30.20 1023 10 16 N/A
10:51 am 10:51 Sunny 63 17.2 27 -2.8 26 26 ESE 12 19 30.17 1022 10 16 N/A
11:51 am 11:51 Sunny 65 18.3 26 -3.3 23 23 SE 7 11 30.13 1020 10 16 N/A
12:51 pm 12:51 Sunny 68 20 27 -2.8 21 21 VRB 6 9 30.09 1019 10 16 N/A
1:51 pm 13:51 Sunny 70 21.1 27 -2.8 20 20 N N/A 30.04 1017 10 16 N/A
2:51 pm 14:51 Sunny 72 22.2 27 -2.8 19 19 E 3 6 30.01 1016 10 16 N/A
3:51 pm 15:51 Sunny 71 21.7 26 -3.3 19 19 S 5 7 30.00 1016 10 16 N/A
4:51 pm 16:51 Sunny 68 20 26 -3.3 21 21 WSW 5 7 30.01 1016 10 16 N/A
5:51 pm 17:51 Clear 61 16.1 26 -3.3 26 26 SSW 3 6 30.02 1017 10 16 N/A
6:51 pm 18:51 Clear 54 12.2 24 -4.4 31 31 NE 7 11 30.05 1018 10 16 N/A
7:51 pm 19:51 Clear 51 10.6 24 -4.4 35 35 E 6 9 30.07 1018 10 16 N/A
8:51 pm 20:51 Clear 50 10 24 -4.4 36 36 SSE 6 9 30.06 1018 10 16 N/A
9:51 pm 21:51 Clear 47 8.3 24 -4.4 41 41 SE 7 11 30.06 1018 10 16 N/A
10:51 pm 22:51 Clear 47 8.3 24 -4.4 41 41 SSE 6 9 30.05 1018 10 16 N/A
11:51 pm 23:51 Clear 44 6.7 23 -5 43 43 N N/A 30.05 1018 10 16 N/A

Powered by AerisWeather